Fort Eustis, VA

11:25 PM EST on November 13, 2019 (GMT -0500)
Felker Army Air Field

Weather History for KFAF - September, 2019

Change the Weather History Date:

Wednesday, September 11, 2019

  Actual Average Record
Temperature  
Mean Temperature 78 °F -  
Max Temperature 87 °F 79 °F 94 °F (2007)
Min Temperature 69 °F 65 °F 56 °F (2017)
Cooling Degree Days 13    
Growing Degree Days 28 (Base 50)    
Moisture  
Dew Point 65 °F    
Average Humidity 66    
Maximum Humidity 81    
Minimum Humidity 46    
Precipitation  
Precipitation 0.00 in - - ()
Sea Level Pressure  
Sea Level Pressure 30.19 in    
Wind  
Wind Speed 3 mph ()    
Max Wind Speed 9 mph    
Max Gust Speed -    
Visibility 9.8 miles    
Events      
Averages and records for this station are not official NWS values.
T = Trace of Precipitation, MM = Missing Value Source: Averaged Metar Reports

Daily Weather History Graph

Daily Weather History Graph

Search for Another Location

Airport or City:

Astronomy

Sep. 11, 2019 Rise Set
Actual Time 6:45 AM EDT 7:20 PM EDT
Civil Twilight 6:18 AM EDT 7:46 PM EDT
Nautical Twilight 5:47 AM EDT 8:17 PM EDT
Astronomical Twilight 5:16 AM EDT 8:49 PM EDT
Moon 6:27 PM EDT (9/11) 4:10 AM EDT (9/11)
Length of Visible Light 13h 27m
Length of Day
12h 35m
Waxing Gibbous, 94% of the Moon is Illuminated
Sep 11
Waxing Gibbous
Sep 14
Full
Sep 21
Last Quarter
Sep 28
New
Oct 5
First Quarter

Hourly Weather History & Observations

Time (EDT) Temp. Heat Index Dew Point Humidity Pressure Visibility Wind Dir Wind Speed Gust Speed Precip Events Conditions
12:56 AM 72.0 °F - 64.8 °F 78% 30.27 in 10.0 mi ESE 3.5 mph - N/A   Clear
1:56 AM 71.4 °F - 64.2 °F 78% 30.27 in 10.0 mi Calm Calm - N/A   Scattered Clouds
2:56 AM 70.7 °F - 63.9 °F 79% 30.26 in 10.0 mi Calm Calm - N/A   Clear
3:56 AM 69.8 °F - 63.3 °F 80% 30.25 in 10.0 mi Calm Calm - N/A   Clear
4:56 AM 70.0 °F - 63.1 °F 79% 30.24 in 10.0 mi Calm Calm - N/A   Clear
5:56 AM 69.6 °F - 63.1 °F 80% 30.24 in 10.0 mi Calm Calm - N/A   Clear
6:56 AM 69.6 °F - 63.5 °F 81% 30.26 in 6.0 mi Calm Calm - N/A   Mist
7:56 AM 72.3 °F - 65.8 °F 80% 30.27 in 10.0 mi SSW 5.8 mph - N/A   Partly Cloudy
8:56 AM 74.7 °F - 67.3 °F 78% 30.27 in 10.0 mi South 5.8 mph - N/A   Partly Cloudy
9:56 AM 76.3 °F - 66.9 °F 73% 30.27 in 10.0 mi South 4.6 mph - N/A   Partly Cloudy
10:56 AM 79.0 °F - 66.6 °F 66% 30.25 in 10.0 mi SSW 4.6 mph - N/A   Partly Cloudy
11:56 AM 81.9 °F 84.1 °F 66.0 °F 59% 30.23 in 10.0 mi SSE 5.8 mph - N/A   Clear
12:56 PM 84.2 °F 85.8 °F 64.6 °F 52% 30.20 in 10.0 mi South 6.9 mph - N/A   Partly Cloudy
1:56 PM 85.6 °F 87.1 °F 64.8 °F 49% 30.17 in 10.0 mi South 5.8 mph - N/A   Partly Cloudy
2:56 PM 87.3 °F 88.9 °F 64.6 °F 47% 30.15 in 10.0 mi SSE 9.2 mph - N/A   Partly Cloudy
3:56 PM 87.4 °F 88.8 °F 64.6 °F 46% 30.13 in 10.0 mi South 8.1 mph - N/A   Partly Cloudy
4:56 PM 87.4 °F 90.5 °F 67.1 °F 51% 30.10 in 10.0 mi SSE 8.1 mph - N/A   Clear
5:56 PM 86.5 °F 89.0 °F 66.2 °F 51% 30.09 in 10.0 mi South 8.1 mph - N/A   Clear
6:56 PM 84.2 °F 87.1 °F 67.3 °F 57% 30.11 in 10.0 mi South 3.5 mph - N/A   Clear
7:56 PM 82.2 °F 84.7 °F 67.3 °F 60% 30.12 in 10.0 mi SSW 4.6 mph - N/A   Clear
8:56 PM 80.4 °F 82.7 °F 66.6 °F 63% 30.11 in 10.0 mi South 4.6 mph - N/A   Mostly Cloudy
9:56 PM 79.7 °F - 66.0 °F 63% 30.12 in 10.0 mi SSW 5.8 mph - N/A   Mostly Cloudy
10:56 PM 79.2 °F - 65.8 °F 64% 30.12 in 10.0 mi South 5.8 mph - N/A   Mostly Cloudy
11:56 PM 77.7 °F - 65.5 °F 66% 30.10 in 10.0 mi South 5.8 mph - N/A   Clear